Regional Weather Roundup
Issued by NWS

Home | Current Version | Previous Version | Graphics & Text | Print | Product List | Glossary On
Versions: 1 2 3 4 5 6 7 8 9 10 11 12 13 14 15 16 17 18 19 20 21 22 23 24 25 26 27 28 29 30 31 32 33 34 35 36 37 38 39 40 41 42 43 44 45 46 47 48 49 50
000
ASUS45 KBOU 232310
RWRCO

WEATHER ROUNDUP FOR COLORADO
NATIONAL WEATHER SERVICE DENVER/BOULDER CO
400 PM MST THU NOV 23 2017

NOTE: "FAIR" INDICATES FEW OR NO CLOUDS BELOW 12000 FEET WITH NO
SIGNIFICANT WEATHER AND/OR OBSTRUCTIONS TO VISIBILITY.

COZ001>005-013-030-031-240000-
...NORTHWEST COLORADO...

CITY           SKY/WX    TMP DP  RH WIND       PRES   REMARKS
CRAIG          FAIR      57  33  40 W6        30.19F
HAYDEN         FAIR      55  38  52 S5        30.23S
MEEKER         FAIR      59  35  40 SW6       30.20F
RABBIT EARS PA FAIR      34  34 100 W8        30.35S WCI  27
STEAMBOAT SPGS FAIR      53  37  54 CALM      30.23S
WALDEN         FAIR      50  32  50 SW23G31   30.23R
$$

COZ006>008-011-240000-
...WEST CENTRAL VALLEYS...

CITY           SKY/WX    TMP DP  RH WIND       PRES   REMARKS
GRAND JUNCTION FAIR      59  36  42 W6        30.21F
MONTROSE       FAIR      62  33  33 CALM      30.24F
EAGLE          FAIR      55  35  47 NW6       30.24F
RIFLE          FAIR      56  36  47 CALM      30.22F
DELTA          FAIR      63  34  33 SW6       30.22F
NUCLA          FAIR      61  32  33 CALM      30.28F
$$

COZ017>023-064>068-240000-
...SOUTHWEST COLORADO...

CITY           SKY/WX    TMP DP  RH WIND       PRES   REMARKS
DURANGO        FAIR      59  29  31 SW6       30.24F
CORTEZ         FAIR      60  32  34 SW10      30.24S
PAGOSA SPRINGS FAIR      58  24  27 SW3       30.29F
TELLURIDE      FAIR      56  15  20 W9        30.38F
WOLF CREEK PAS FAIR      39  23  52 SW8       30.54S
$$

COZ009-010-012-014-032>034-037-058>063-240000-
...CENTRAL COLORADO...

CITY           SKY/WX    TMP DP  RH WIND       PRES   REMARKS
ASPEN          FAIR      52  33  48 N5        30.27F
BUENA VISTA    FAIR      57  19  22 W15G23    30.23S
COPPER MTN     FAIR      37  25  60 NW9       30.44F
BERTHOUD PASS  FAIR      32  21  64 NW52G61   30.34F WCI  14
COTTONWOOD PAS FAIR      54  18  24 W15       30.33S
GUNNISON       FAIR      52  30  43 CALM      30.30F
KREMMLING      FAIR      55  34  44 W9        30.26R
LEADVILLE      FAIR      45  17  32 NW7       30.34S
MONARCH PASS   FAIR      36  23  60 W29G35    30.54S
SALIDA         FAIR      61  19  19 SW15G24   30.28F
SUNLIGHT       FAIR      37  23  56 SW13G20   30.44F
WILKERSON PASS FAIR      43  12  28 SW9G20    30.40F
$$

COZ069>075-240000-
...SAN LUIS VALLEY/SANGRE DE CRISTO MOUNTAINS...

CITY           SKY/WX    TMP DP  RH WIND       PRES   REMARKS
ALAMOSA        FAIR      56  27  32 N6        30.26F
DEL NORTE      FAIR      54  30  39 E3        30.29S
LA VETA PASS   FAIR      45  16  31 S21G29      N/A
SAGUACHE       FAIR      52  30  43 S7        30.29S
$$

COZ035-036-038>040-240000-
...NORTHERN COLORADO FRONT RANGE...

CITY           SKY/WX    TMP DP  RH WIND       PRES   REMARKS
DENVER INTL AP MOCLDY    64  22  20 W6        30.01F
DMNS CITY PARK   N/A     67  16  14 N8        30.01F
AURORA         MOCLDY    61  24  24 S5        30.04F
FRONT RANGE AP MOCLDY    64  27  24 N6        30.03F
ERIE MUNI ARPT FAIR      62  22  21 SW7       30.05S
BOULDER MUN AP FAIR      64  27  24 CALM      30.01R
CENTENNIAL     MOCLDY    59  27  29 S5        30.05F
BROOMFIELD     MOCLDY    66  19  16 W15       30.04F
FORT COLLINS   FAIR      60  39  45 E9        29.99F
LONGMONT       FAIR      68  25  20 W8        30.01F
$$

COZ041-046-047-076>085-087-088-240000-
...PIKES PEAK/PALMER DIVIDE AND SOUTHERN FOOTHILLS...

CITY           SKY/WX    TMP DP  RH WIND       PRES   REMARKS
COLO. SPRINGS  MOCLDY    62  27  26 S5        30.10S
A. F. ACADEMY  FAIR      58  28  32 SE6       30.11S
SCHRIEVER AFB  FAIR      59  25  26 S5        30.10F
CHEYENNE MTN   FAIR      59  24  26 CALM      30.08F
ELLICOTT         N/A    N/A N/A N/A S6        30.08F
FALCON         FAIR      57  25  29 SW6       30.14S
FORT CARSON    FAIR      61  28  29 S3        30.07F
LIMON          FAIR      63  34  33 S9        30.04S
MONUMENT HILL  FAIR      55  25  30 CALM      30.15S
CANON CITY     FAIR      72  27  18 W8        30.05S
WALSENBURG     FAIR      66  23  19 SW7       30.09F
TRINIDAD       FAIR      65  33  30 S6        30.09S
$$

COZ042>045-048>051-090-091-240000-
...NORTHEAST COLORADO...

CITY           SKY/WX    TMP DP  RH WIND       PRES   REMARKS
GREELEY ARPT   FAIR      58  37  45 NE3       29.99F
AKRON          FAIR      64  27  24 W7        29.97F
BURLINGTON     FAIR      62  37  39 SW9       29.99F
WRAY           NOT AVBL
YUMA           FAIR      63  32  31 W3        29.95F
STERLING       FAIR      68  32  26 W7        29.93S
HOLYOKE        FAIR      64  34  32 W6        29.92F
FORT MORGAN    FAIR      65  27  23 CALM      29.97F
$$

COZ086-089-092>099-240000-
...SOUTHEAST COLORADO...

CITY           SKY/WX    TMP DP  RH WIND       PRES   REMARKS
PUEBLO         FAIR      68  29  23 E10       30.01S
LA JUNTA       FAIR      69  33  26 S3        30.01F
LAMAR          FAIR      65  34  31 SW5       29.99S
SPRINGFIELD      N/A     65  35  33 SW3       30.03F
$$



USA.gov is the U.S. government's official web portal to all federal, state and local government web resources and services.